EW0734 Weather Reports


time (UTC)temp
C
wind
direction
speed
KPH
gust
KPH
rain 1hr
cm
rain 24hr
cm
rain mn
cm
humidity
%
barometer
mb
20260901022027 24 0.0 0.0 0.00 0.00 0.00 92 1016.7
20260901021027 24 0.0 0.0 0.00 0.00 0.00 91 1016.7
20260901020027 25 0.0 0.0 0.00 0.00 0.00 90 1016.7
20260901015048 25 0.0 0.0 0.00 0.00 0.00 90 1016.9
20260901014047 25 0.0 0.0 0.00 0.00 0.00 90 1016.7
20260901013028 25 0.0 0.0 0.00 0.00 0.00 89 1016.7
20260901012047 25 0.0 0.0 0.00 0.00 0.00 89 1016.5
20260901011027 25 0.0 0.0 0.00 0.00 0.00 89 1016.4
20260901010027 25 0.0 0.0 0.00 0.00 0.00 89 1016.5
20260901005027 25 0.0 0.0 0.00 0.00 0.00 89 1016.4
20260901004027 25 0.0 0.0 0.00 0.00 0.00 89 1016.3
20260901003027 25 0.0 0.0 0.00 0.00 0.00 88 1016.3
20260901002028 26 0.0 0.0 0.00 0.00 0.00 88 1016.3
20260901001027 26 0.0 0.0 0.00 0.00 0.00 88 1016.2
20260901000027 26 0.0 0.0 0.00 0.00 0.00 87 1016.3
20260831235027 26 0.0 0.0 0.00 0.00 0.00 86 1016.2
20260831234027 26 0.0 0.0 0.00 0.00 0.00 86 1016.2
20260831233027 26 0.0 0.0 0.00 0.00 0.00 85 1016.4
20260831232028 27 0.0 0.0 0.00 0.00 0.00 85 1016.5
20260831231028 27 0.0 0.0 0.00 0.00 0.00 85 1016.5
20260831230047 27 0.0 0.0 0.00 0.00 0.00 84 1016.6
20260831225027 27 0.0 0.0 0.00 0.00 0.00 84 1016.6
20260831224027 27 0.0 0.0 0.00 0.00 0.00 83 1016.6
20260831223027 27 0.0 0.0 0.00 0.00 0.00 83 1016.7
20260831222108 28 0.0 0.0 0.00 0.00 0.00 82 1016.7
20260831221027 28 0.0 0.0 0.00 0.00 0.00 81 1016.7
20260831220027 28 0.0 0.0 0.00 0.00 0.00 80 1016.8
20260831215047 29 0.0 0.0 0.00 0.00 0.00 79 1016.7
20260831214028 29 0.0 0.0 0.00 0.00 0.00 78 1016.6
20260831213027 30 0.0 0.0 0.00 0.00 0.00 76 1016.5
20260831212028 30 0.0 0.0 0.00 0.00 0.00 77 1016.5
20260831211028 30 0.0 0.0 0.00 0.00 0.00 75 1016.5
20260831210027 30 0.0 0.0 0.00 0.00 0.00 75 1016.5
20260831205029 30 0.0 0.0 0.00 0.00 0.00 75 1016.4
20260831204029 30 0.0 0.0 0.00 0.00 0.00 75 1016.5
20260831203030 30 0.0 0.0 0.00 0.00 0.00 74 1016.5
20260831202030 30 0.0 0.0 0.00 0.00 0.00 75 1016.5
20260831201029 31 0.0 0.0 0.00 0.00 0.00 72 1016.6
20260831200109 30 0.0 0.0 0.00 0.00 0.00 72 1016.6
20260831195029 30 0.0 0.0 0.00 0.00 0.00 77 1016.7
20260831194034 30 0.0 0.0 0.00 0.00 0.00 78 1016.8
20260831193029 30 0.0 0.0 0.00 0.00 0.00 77 1016.9
20260831192029 30 0.0 0.0 0.00 0.00 0.00 76 1017.0
20260831191029 30 0.0 0.0 0.00 0.00 0.00 76 1017.1
20260831190049 30 0.0 0.0 0.00 0.00 0.00 75 1017.1
20260831185029 31 0.0 0.0 0.00 0.00 0.00 74 1017.0
20260831184049 31 0.0 0.0 0.00 0.00 0.00 74 1017.1
20260831183028 31 0.0 0.0 0.00 0.00 0.00 73 1017.0
20260831182028 31 0.0 0.0 0.00 0.00 0.00 72 1017.1
20260831181028 31 0.0 0.0 0.00 0.00 0.00 70 1017.3
20260831180029 31 0.0 0.0 0.00 0.00 0.00 73 1017.3
20260831175029 31 0.0 0.0 0.00 0.00 0.00 69 1017.3
20260831174028 31 0.0 0.0 0.00 0.00 0.00 67 1017.5
20260831173031 31 0.0 0.0 0.00 0.00 0.00 68 1017.5
20260831172028 31 0.0 0.0 0.00 0.00 0.00 73 1017.6
20260831171034 31 0.0 0.0 0.00 0.00 0.00 73 1017.8
20260831170029 31 0.0 0.0 0.00 0.00 0.00 73 1017.9
20260831165029 31 0.0 0.0 0.00 0.00 0.00 70 1018.0
20260831164029 31 0.0 0.0 0.00 0.00 0.00 73 1018.1
20260831163059 30 0.0 0.0 0.00 0.00 0.00 73 1018.1
20260831162028 30 0.0 0.0 0.00 0.00 0.00 73 1018.1
20260831161029 30 0.0 0.0 0.00 0.00 0.00 72 1018.0
20260831160028 30 0.0 0.0 0.00 0.00 0.00 74 1018.1
20260831155048 30 0.0 0.0 0.00 0.00 0.00 76 1018.0
20260831154034 30 0.0 0.0 0.00 0.00 0.00 71 1018.1
20260831153028 30 0.0 0.0 0.00 0.00 0.00 72 1018.0
20260831152028 30 0.0 0.0 0.00 0.00 0.00 74 1018.0
20260831151028 30 0.0 0.0 0.00 0.00 0.00 75 1018.0
20260831150030 30 0.0 0.0 0.00 0.00 0.00 73 1017.9
20260831145028 29 0.0 0.0 0.00 0.00 0.00 77 1017.9
20260831144109 28 0.0 0.0 0.00 0.00 0.00 78 1017.8
20260831143028 28 0.0 0.0 0.00 0.00 0.00 77 1017.9
20260831142048 28 0.0 0.0 0.00 0.00 0.00 79 1017.9
20260831141034 27 0.0 0.0 0.00 0.00 0.00 79 1017.8
20260831140028 27 0.0 0.0 0.00 0.00 0.00 79 1017.8
20260831135049 27 0.0 0.0 0.00 0.00 0.00 80 1017.9
20260831134028 26 0.0 0.0 0.00 0.00 0.00 86 1018.0
20260831133029 26 0.0 0.0 0.00 0.00 0.00 88 1018.1
20260831132028 25 0.0 0.0 0.00 0.00 0.00 91 1018.1
20260831131108 24 0.0 0.0 0.00 0.00 0.00 91 1018.1
20260831130028 23 0.0 0.0 0.00 0.00 0.00 78 1018.1
20260831125028 22 0.0 0.0 0.00 0.00 0.00 60 1018.1
20260831124108 22 0.0 0.0 0.00 0.00 0.00 55 1018.1
20260831123048 22 0.0 0.0 0.00 0.00 0.00 50 1018.1
20260831122028 21 0.0 0.0 0.00 0.00 0.00 49 1017.9
20260831121026 -17 0.0 0.0 0.00 0.00 0.00
20260831120033 -17 0.0 0.0 0.00 0.00 0.00
20260831115518 -17 0.0 0.0 0.00 0.00 0.00
20260831115113 -17 0.0 0.0 0.00 0.00 0.00
20260831114526 -17 0.0 0.0 0.00 0.00 0.00
20260831113526 -17 0.0 0.0 0.00 0.00 0.00
20260831113107 -17 0.0 0.0 0.00 0.00 0.00
20260831112519 -17 0.0 0.0 0.00 0.00 0.00
20260831112026 -17 0.0 0.0 0.00 0.00 0.00
20260831111047 -17 0.0 0.0 0.00 0.00 0.00
20260831110544 -17 0.0 0.0 0.00 0.00 0.00
20260831110018 -17 0.0 0.0 0.00 0.00 0.00
20260831105546 -17 0.0 0.0 0.00 0.00 0.00
20260831104546 -17 0.0 0.0 0.00 0.00 0.00
20260831104045 -17 0.0 0.0 0.00 0.00 0.00
20260831103539 -17 0.0 0.0 0.00 0.00 0.00
20260831102606 -17 0.0 0.0 0.00 0.00 0.00
20260831101627 -17 0.0 0.0 0.00 0.00 0.00
20260831101044 -17 0.0 0.0 0.00 0.00 0.00
20260831100527 -17 0.0 0.0 0.00 0.00 0.00
20260831095526 -17 0.0 0.0 0.00 0.00 0.00
20260831095049 -17 0.0 0.0 0.00 0.00 0.00
20260831094517 -17 0.0 0.0 0.00 0.00 0.00
20260831094027 -17 0.0 0.0 0.00 0.00 0.00
20260831093026 -17 0.0 0.0 0.00 0.00 0.00
20260831092528 -17 0.0 0.0 0.00 0.00 0.00
20260831092004 -17 0.0 0.0 0.00 0.00 0.00
20260831091526 -17 0.0 0.0 0.00 0.00 0.00
20260831090527 -17 0.0 0.0 0.00 0.00 0.00
20260831090042 -17 0.0 0.0 0.00 0.00 0.00
20260831085517 -17 0.0 0.0 0.00 0.00 0.00
20260831085026 -17 0.0 0.0 0.00 0.00 0.00
20260831084046 -17 0.0 0.0 0.00 0.00 0.00
20260831083540 -17 0.0 0.0 0.00 0.00 0.00
20260831083016 -17 0.0 0.0 0.00 0.00 0.00
20260831082526 -17 0.0 0.0 0.00 0.00 0.00
20260831081526 -17 0.0 0.0 0.00 0.00 0.00
20260831081027 -17 0.0 0.0 0.00 0.00 0.00
20260831080604 -17 0.0 0.0 0.00 0.00 0.00
20260831080026 -17 0.0 0.0 0.00 0.00 0.00
20260831075026 -17 0.0 0.0 0.00 0.00 0.00
20260831074547 -17 0.0 0.0 0.00 0.00 0.00
20260831074043 -17 0.0 0.0 0.00 0.00 0.00
20260831073526 -17 0.0 0.0 0.00 0.00 0.00
20260831072526 -17 0.0 0.0 0.00 0.00 0.00
20260831072040 -17 0.0 0.0 0.00 0.00 0.00
20260831071517 -17 0.0 0.0 0.00 0.00 0.00
20260831071026 -17 0.0 0.0 0.00 0.00 0.00
20260831070026 -17 0.0 0.0 0.00 0.00 0.00
20260831065509 -17 0.0 0.0 0.00 0.00 0.00 84
20260831065104 21 0.0 0.0 0.00 0.00 0.00 84 1016.7
20260831064527 21 0.0 0.0 0.00 0.00 0.00 84 1016.7
20260831063548 21 0.0 0.0 0.00 0.00 0.00 85 1016.7
20260831062527 21 0.0 0.0 0.00 0.00 0.00 85 1016.8
20260831061528 21 0.0 0.0 0.00 0.00 0.00 85 1016.8
20260831060527 21 0.0 0.0 0.00 0.00 0.00 87 1016.9
20260831055547 22 0.0 0.0 0.00 0.00 0.00 87 1016.9
20260831054527 22 0.0 0.0 0.00 0.00 0.00 88 1017.0
20260831053527 22 0.0 0.0 0.00 0.00 0.00 89 1017.0
20260831052528 22 0.0 0.0 0.00 0.00 0.00 90 1017.2
20260831051527 22 0.0 0.0 0.00 0.00 0.00 91 1017.3
20260831050527 22 0.0 0.0 0.00 0.00 0.00 91 1017.3
20260831045527 22 0.0 0.0 0.00 0.00 0.00 92 1017.4
20260831044547 22 0.0 0.0 0.00 0.00 0.00 92 1017.3
20260831043527 22 0.0 0.0 0.00 0.00 0.00 92 1017.2
20260831042547 22 0.0 0.0 0.00 0.00 0.00 92 1017.1
20260831041547 22 0.0 0.0 0.00 0.00 0.00 92 1017.3
20260831040537 22 0.0 0.0 0.00 0.00 0.00 92 1017.3
20260831035527 22 0.0 0.0 0.00 0.00 0.00 92 1017.3
20260831034528 22 0.0 0.0 0.00 0.00 0.00 92 1017.4
20260831033527 22 0.0 0.0 0.00 0.00 0.00 92 1017.8
20260831032528 22 0.0 0.0 0.00 0.00 0.00 92 1017.9
20260831031528 22 0.0 0.0 0.00 0.00 0.00 92 1017.8
20260831030527 22 0.0 0.0 0.00 0.00 0.00 92 1018.0
20260831025527 22 0.0 0.0 0.00 0.00 0.00 92 1018.1
20260831024547 22 0.0 0.0 0.00 0.00 0.00 92 1018.2
20260831023527 22 0.0 0.0 0.00 0.00 0.00 92 1018.4
20260831022527 22 0.0 0.0 0.00 0.00 0.00 92 1018.1